Flag for Czech Republic Weather past 2 weeks in Brno, Czech Republic

Now
60 °F

Overcast.


Feels Like: 60 °F
Forecast: 43 / 72 °F
Wind: 1 mph from Northwest

Location: Brno / Turany

Current Time: May 28, 2015 at 4:13:39 PM

Latest Report: May 28, 2015 at 3:00 PM


Visibility: 25 mi

Pressure: 30.06 "Hg

Humidity: 44%

Dew point: 38 °F

Location of BrnoLocation

Historic Weather in Brno — Graph

°F

Brno temperature yesterday

Maximum temperature yesterday: 56 °F (at 3:00 PM)
Minimum temperature yesterday: 47 °F (at 6:00 AM)
Average temperature yesterday: 52 °F

Past Weeks' High & Low Weather Summary

 TemperatureHumidityPressure
High73 °F (May 16, 5:00 PM)96% (May 24, 4:00 AM)30.23 "Hg (May 24, 4:00 AM)
Low41 °F (May 18, 6:00 AM)31% (May 16, 1:00 PM)29.74 "Hg (May 14, 4:00 AM)
Average57 °F66%29.99 "Hg
* Reported May 13 2:00 PM — May 28 2:00 PM, Brno, Weather by CustomWeather, © 2015

Note: Actual official high and low records may vary slightly from our data, if they occured in-between our weather recording intervals... More about our weather records

Advertising

Brno weather history for previous 24 hours

 ConditionsComfort  
Time TempWeatherWind HumidityBarometerVisibility
2:00 PM
Thu, May 28
58 °FOvercast.3 mph45%30.08 "Hg25 mi
1:00 PM57 °FOvercast.5 mph46%30.09 "Hg25 mi
12:00 PM56 °FOvercast.3 mph54%30.11 "Hg25 mi
11:00 AM54 °FOvercast.5 mph49%30.12 "Hg25 mi
10:00 AM54 °FOvercast.3 mph56%30.12 "Hg22 mi
9:00 AM53 °FOvercast.3 mph66%30.13 "Hg19 mi
8:00 AM52 °FOvercast.3 mph69%30.12 "Hg19 mi
7:00 AM50 °FOvercast.2 mph72%30.12 "Hg19 mi
4:00 AM49 °FOvercast.5 mph72%30.11 "Hg12 mi
3:00 AM50 °FOvercast.5 mph69%30.12 "Hg12 mi
2:00 AM50 °FOvercast.3 mph69%30.13 "Hg12 mi
1:00 AM50 °FOvercast.3 mph67%30.13 "Hg12 mi
12:00 AM50 °FOvercast.5 mph66%30.13 "Hg19 mi
10:00 PM
Wed, May 27
52 °FOvercast.2 mph60%30.14 "Hg19 mi
9:00 PM53 °FOvercast.3 mph58%30.12 "Hg19 mi
8:00 PM53 °FPartly sunny.5 mph54%30.10 "Hg25 mi
7:00 PM54 °FPartly sunny.6 mph52%30.10 "Hg25 mi
6:00 PM54 °FPartly sunny.7 mph48%30.09 "Hg25 mi
5:00 PM56 °FPartly sunny.5 mph48%30.08 "Hg22 mi
4:00 PM56 °FPartly sunny.8 mph50%30.07 "Hg22 mi
Weather by CustomWeather, © 2015

See weather overviewHow to use our weather pages